TimeAKST,TemperatureF,Dew PointF,Humidity,Sea Level PressureIn,VisibilityMPH,Wind Direction,Wind SpeedMPH,Gust SpeedMPH,PrecipitationIn,Events,Conditions,WindDirDegrees,DateUTC
12:55 AM,-1.7,-15.5,52,29.66,10.0,NE,11.5,-,N/A,,Clear,40,2012-11-18 09:55:00
1:55 AM,-1.8,-15.9,51,29.66,10.0,NE,11.5,-,N/A,,Clear,40,2012-11-18 10:55:00
2:55 AM,-3.5,-16.6,53,29.67,10.0,NE,8.1,-,N/A,,Clear,50,2012-11-18 11:55:00
3:55 AM,-2.7,-17.1,50,29.67,10.0,NE,11.5,-,N/A,,Clear,40,2012-11-18 12:55:00
4:55 AM,-3.3,-18.0,49,29.67,10.0,NNE,5.8,-,N/A,,Clear,30,2012-11-18 13:55:00
5:55 AM,-3.3,-17.9,50,29.69,10.0,NE,10.4,-,N/A,,Clear,40,2012-11-18 14:55:00
6:55 AM,-3.3,-17.9,50,29.70,10.0,NE,9.2,-,N/A,,Clear,40,2012-11-18 15:55:00
7:55 AM,-3.3,-18.4,49,29.71,10.0,Variable,5.8,-,N/A,,Clear,0,2012-11-18 16:55:00
8:55 AM,-3.6,-18.4,49,29.73,10.0,NE,10.4,-,N/A,,Clear,40,2012-11-18 17:55:00
9:55 AM,-4.2,-18.8,50,29.74,10.0,NNE,8.1,-,N/A,,Clear,30,2012-11-18 18:55:00
10:55 AM,-3.1,-18.6,48,29.75,10.0,NE,5.8,-,N/A,,Clear,40,2012-11-18 19:55:00
11:55 AM,-2.6,-17.7,49,29.76,10.0,NNE,12.7,-,N/A,,Clear,30,2012-11-18 20:55:00
12:55 PM,-2.0,-16.6,50,29.77,10.0,NNE,15.0,-,N/A,,Mostly Cloudy,30,2012-11-18 21:55:00
1:55 PM,-1.1,-16.8,48,29.78,10.0,NNE,10.4,-,N/A,,Overcast,30,2012-11-18 22:55:00
2:55 PM,-1.3,-15.9,50,29.78,10.0,NNE,11.5,-,N/A,,Overcast,30,2012-11-18 23:55:00
3:55 PM,-2.6,-16.8,51,29.79,10.0,NNE,10.4,-,N/A,,Overcast,20,2012-11-19 00:55:00
4:55 PM,-3.6,-18.4,49,29.81,10.0,NE,6.9,-,N/A,,Clear,40,2012-11-19 01:55:00
5:55 PM,-4.4,-18.9,50,29.83,10.0,NNE,6.9,-,N/A,,Clear,30,2012-11-19 02:55:00
6:55 PM,-4.9,-19.1,50,29.85,10.0,NE,4.6,-,N/A,,Clear,40,2012-11-19 03:55:00
7:55 PM,-4.5,-19.1,50,29.85,10.0,NNE,5.8,-,N/A,,Clear,30,2012-11-19 04:55:00
8:55 PM,-4.5,-18.4,51,29.87,10.0,NNE,5.8,-,N/A,,Mostly Cloudy,20,2012-11-19 05:55:00
9:55 PM,-11.9,-21.3,63,29.89,10.0,Calm,Calm,-,N/A,,Clear,0,2012-11-19 06:55:00
10:55 PM,-19.5,-25.4,74,29.91,10.0,Calm,Calm,-,N/A,,Clear,0,2012-11-19 07:55:00
11:55 PM,-23.1,-29.6,72,29.93,10.0,Calm,Calm,-,N/A,,Clear,0,2012-11-19 08:55:00